(°C)
(°C)
-0°
-1°
VSV
SV
SV
SV
SV
SV
SV
(km/h)
21-30
21-33
22-34
23-36
25-38
25-39
26-40
(mm)
1
1
0.9
0.8
0.7
0
0
(%)
58
76
77
79
79
58
43

Výška Slnka nad obzorom

/ -5°
sun-icon
UV 1
05:24
17:21
Zmenšujúci sa polmesiac (253°)
19:32
12:46

Správy METAR pre lokalitu Begishevo Airport (UWKE)

Čas Podmienky Teplota/
Rosný bod
Vietor Viditeľnosť Počasie Oblaky Tlak Zmeniť Nespracované
IFR 7°C / 7°C 80º 14kt >10km Light Rain 1.00mm precipitation Vertical Visibility of 0ft. 1008 No Significant change. Runway 03: Wet or puddles, 1-10% contamination with 3mm, friction coefficient 0.55. UWKE 270130Z 08007MPS 9999 -RA BKN006 07/07 Q1008 R03/210355 NOSIG RMK OBST OBSC QFE739/0986
IFR 7°C / 7°C 80º 14kt >10km Light Rain 1.00mm precipitation Vertical Visibility of 0ft. 1008 No Significant change. Runway 03: Wet or puddles, 1-10% contamination with 3mm, friction coefficient 0.55. UWKE 270100Z 08007MPS 9999 -RA BKN005 07/07 Q1008 R03/210355 NOSIG RMK OBST OBSC QFE739/0986
IFR 8°C / 7°C 80º 14kt >10km Light Rain 1.00mm precipitation Vertical Visibility of 0ft. 1008 No Significant change. Runway 03: Clear and dry, 51-100% contamination with <1mm, friction coefficient 0.70. UWKE 270030Z 08007MPS 9999 -RA BKN007 08/07 Q1008 R03/090070 NOSIG RMK OBST OBSC QFE739/0986
MVFR 8°C / 6°C 80º 16kt >10km - Broken Clouds 1300ft 1007 No Significant change. Runway 03: Clear and dry, 51-100% contamination with <1mm, friction coefficient 0.70. UWKE 270000Z 08008MPS 9999 BKN013 08/06 Q1007 R03/090070 NOSIG RMK QFE739/0985
VFR 9°C / 5°C 80º 12kt >10km - Clouds and Visibility OK 1007 No Significant change. Runway 03: Clear and dry, 51-100% contamination with <1mm, friction coefficient 0.70. UWKE 262330Z 08006MPS CAVOK 09/05 Q1007 R03/090070 NOSIG RMK QFE739/0985
VFR 8°C / 6°C 50º 10kt >10km - Broken Clouds 4900ft 1007 No Significant change. Runway 03: Clear and dry, 51-100% contamination with <1mm, friction coefficient 0.70. UWKE 262300Z 05005MPS 9999 BKN049 08/06 Q1007 R03/090070 NOSIG RMK QFE739/0985
VFR 7°C / 6°C 70º 8kt >10km - Clouds and Visibility OK 1007 No Significant change. Runway 03: Clear and dry, 51-100% contamination with <1mm, friction coefficient 0.70. UWKE 262230Z 07004MPS CAVOK 07/06 Q1007 R03/090070 NOSIG RMK QFE739/0985
VFR 6°C / 6°C 70º 8kt 9000m - Clear 1007 No Significant change. Runway 03: Clear and dry, 51-100% contamination with <1mm, friction coefficient 0.70. UWKE 262200Z 07004MPS 9000 NSC 06/06 Q1007 R03/090070 NOSIG RMK QFE738/0985
VFR 6°C / 6°C 60º 8kt 9000m - Clear 1007 No Significant change. Runway 03: Clear and dry, 51-100% contamination with <1mm, friction coefficient 0.70. UWKE 262130Z 06004MPS 9000 NSC 06/06 Q1007 R03/090070 NOSIG RMK QFE738/0985
VFR 7°C / 7°C 30º 8kt >10km - Clouds and Visibility OK 1007 No Significant change. Runway 03: Clear and dry, 51-100% contamination with <1mm, friction coefficient 0.70. UWKE 262100Z 03004MPS CAVOK 07/07 Q1007 R03/090070 NOSIG RMK QFE738/0985
VFR 7°C / 7°C 30º 8kt >10km - Clouds and Visibility OK 1007 No Significant change. Runway 03: Clear and dry, 51-100% contamination with <1mm, friction coefficient 0.70. UWKE 262030Z 03004MPS CAVOK 07/07 Q1007 R03/090070 NOSIG RMK QFE738/0985
VFR 7°C / 7°C 30º 8kt >10km - Clouds and Visibility OK 1007 No Significant change. Runway 03: Clear and dry, 51-100% contamination with <1mm, friction coefficient 0.70. UWKE 262000Z 03004MPS CAVOK 07/07 Q1007 R03/090070 NOSIG RMK QFE738/0985
VFR 8°C / 7°C 50º 6kt >10km - Clouds and Visibility OK 1007 No Significant change. Runway 03: Clear and dry, 51-100% contamination with <1mm, friction coefficient 0.70. UWKE 261930Z 05003MPS CAVOK 08/07 Q1007 R03/090070 NOSIG RMK QFE738/0985
VFR 8°C / 7°C 30º 6kt >10km - Clouds and Visibility OK 1007 No Significant change. Runway 03: Clear and dry, 51-100% contamination with <1mm, friction coefficient 0.70. UWKE 261900Z 03003MPS CAVOK 08/07 Q1007 R03/090070 NOSIG RMK QFE739/0985
VFR 8°C / 7°C 40º 6kt >10km - Clouds and Visibility OK 1007 No Significant change. Runway 03: Clear and dry, 51-100% contamination with <1mm, friction coefficient 0.70. UWKE 261830Z 04003MPS CAVOK 08/07 Q1007 R03/090070 NOSIG RMK QFE739/0985
VFR 8°C / 6°C 80º 6kt >10km - Clouds and Visibility OK 1007 No Significant change. Runway 03: Clear and dry, 51-100% contamination with <1mm, friction coefficient 0.70. UWKE 261800Z 08003MPS CAVOK 08/06 Q1007 R03/090070 NOSIG RMK QFE739/0985
VFR 9°C / 6°C 70º 8kt >10km - Clouds and Visibility OK 1007 No Significant change. Runway 03: Clear and dry, 51-100% contamination with <1mm, friction coefficient 0.70. UWKE 261730Z 07004MPS CAVOK 09/06 Q1007 R03/090070 NOSIG RMK QFE739/0985
VFR 9°C / 6°C 70º 6kt >10km - Clouds and Visibility OK 1007 No Significant change. Runway 03: Clear and dry, 51-100% contamination with <1mm, friction coefficient 0.70. UWKE 261700Z 07003MPS CAVOK 09/06 Q1007 R03/090070 NOSIG RMK QFE739/0985
VFR 9°C / 7°C 70º 6kt >10km - Clouds and Visibility OK 1007 No Significant change. Runway 03: Clear and dry, 51-100% contamination with <1mm, friction coefficient 0.70. UWKE 261630Z 07003MPS CAVOK 09/07 Q1007 R03/090070 NOSIG RMK QFE739/0985
VFR 9°C / 7°C 60º 6kt >10km - Clouds and Visibility OK 1007 No Significant change. Runway 03: Clear and dry, 51-100% contamination with <1mm, friction coefficient 0.70. UWKE 261600Z 06003MPS CAVOK 09/07 Q1007 R03/090070 NOSIG RMK QFE739/0985
VFR 10°C / 7°C 60º 6kt >10km - Clouds and Visibility OK 1007 No Significant change. Runway 03: Clear and dry, 51-100% contamination with <1mm, friction coefficient 0.70. UWKE 261530Z 06003MPS CAVOK 10/07 Q1007 R03/090070 NOSIG RMK QFE739/0985
VFR 10°C / 6°C 60º 8kt >10km - Clouds and Visibility OK 1007 No Significant change. Runway 03: Clear and dry, 51-100% contamination with <1mm, friction coefficient 0.70. UWKE 261500Z 06004MPS CAVOK 10/06 Q1007 R03/090070 NOSIG RMK QFE739/0985
VFR 11°C / 6°C 40º 6kt >10km - Clouds and Visibility OK 1007 No Significant change. Runway 03: Clear and dry, 51-100% contamination with <1mm, friction coefficient 0.70. UWKE 261430Z 04003MPS CAVOK 11/06 Q1007 R03/090070 NOSIG RMK QFE739/0985
VFR 12°C / 7°C 50º 6kt >10km - Clouds and Visibility OK 1007 No Significant change. Runway 03: Clear and dry, 51-100% contamination with <1mm, friction coefficient 0.70. UWKE 261400Z 05003MPS CAVOK 12/07 Q1007 R03/090070 NOSIG RMK QFE739/0985

IFR

7°C / 7°C

[Viac]
Vietor 80º 14kt
Viditeľnosť >10km
Počasie Light Rain 1.00mm precipitation
Oblaky Vertical Visibility of 0ft.
Tlak 1008
Zmeniť No Significant change. Runway 03: Wet or puddles, 1-10% contamination with 3mm, friction coefficient 0.55.
Nespracované UWKE 270130Z 08007MPS 9999 -RA BKN006 07/07 Q1008 R03/210355 NOSIG RMK OBST OBSC QFE739/0986

IFR

7°C / 7°C

[Viac]
Vietor 80º 14kt
Viditeľnosť >10km
Počasie Light Rain 1.00mm precipitation
Oblaky Vertical Visibility of 0ft.
Tlak 1008
Zmeniť No Significant change. Runway 03: Wet or puddles, 1-10% contamination with 3mm, friction coefficient 0.55.
Nespracované UWKE 270100Z 08007MPS 9999 -RA BKN005 07/07 Q1008 R03/210355 NOSIG RMK OBST OBSC QFE739/0986

IFR

8°C / 7°C

[Viac]
Vietor 80º 14kt
Viditeľnosť >10km
Počasie Light Rain 1.00mm precipitation
Oblaky Vertical Visibility of 0ft.
Tlak 1008
Zmeniť No Significant change. Runway 03: Clear and dry, 51-100% contamination with <1mm, friction coefficient 0.70.
Nespracované UWKE 270030Z 08007MPS 9999 -RA BKN007 08/07 Q1008 R03/090070 NOSIG RMK OBST OBSC QFE739/0986

MVFR

8°C / 6°C

[Viac]
Vietor 80º 16kt
Viditeľnosť >10km
Počasie -
Oblaky Broken Clouds 1300ft
Tlak 1007
Zmeniť No Significant change. Runway 03: Clear and dry, 51-100% contamination with <1mm, friction coefficient 0.70.
Nespracované UWKE 270000Z 08008MPS 9999 BKN013 08/06 Q1007 R03/090070 NOSIG RMK QFE739/0985

VFR

9°C / 5°C

[Viac]
Vietor 80º 12kt
Viditeľnosť >10km
Počasie -
Oblaky Clouds and Visibility OK
Tlak 1007
Zmeniť No Significant change. Runway 03: Clear and dry, 51-100% contamination with <1mm, friction coefficient 0.70.
Nespracované UWKE 262330Z 08006MPS CAVOK 09/05 Q1007 R03/090070 NOSIG RMK QFE739/0985

VFR

8°C / 6°C

[Viac]
Vietor 50º 10kt
Viditeľnosť >10km
Počasie -
Oblaky Broken Clouds 4900ft
Tlak 1007
Zmeniť No Significant change. Runway 03: Clear and dry, 51-100% contamination with <1mm, friction coefficient 0.70.
Nespracované UWKE 262300Z 05005MPS 9999 BKN049 08/06 Q1007 R03/090070 NOSIG RMK QFE739/0985

VFR

7°C / 6°C

[Viac]
Vietor 70º 8kt
Viditeľnosť >10km
Počasie -
Oblaky Clouds and Visibility OK
Tlak 1007
Zmeniť No Significant change. Runway 03: Clear and dry, 51-100% contamination with <1mm, friction coefficient 0.70.
Nespracované UWKE 262230Z 07004MPS CAVOK 07/06 Q1007 R03/090070 NOSIG RMK QFE739/0985

VFR

6°C / 6°C

[Viac]
Vietor 70º 8kt
Viditeľnosť 9000m
Počasie -
Oblaky Clear
Tlak 1007
Zmeniť No Significant change. Runway 03: Clear and dry, 51-100% contamination with <1mm, friction coefficient 0.70.
Nespracované UWKE 262200Z 07004MPS 9000 NSC 06/06 Q1007 R03/090070 NOSIG RMK QFE738/0985

VFR

6°C / 6°C

[Viac]
Vietor 60º 8kt
Viditeľnosť 9000m
Počasie -
Oblaky Clear
Tlak 1007
Zmeniť No Significant change. Runway 03: Clear and dry, 51-100% contamination with <1mm, friction coefficient 0.70.
Nespracované UWKE 262130Z 06004MPS 9000 NSC 06/06 Q1007 R03/090070 NOSIG RMK QFE738/0985

VFR

7°C / 7°C

[Viac]
Vietor 30º 8kt
Viditeľnosť >10km
Počasie -
Oblaky Clouds and Visibility OK
Tlak 1007
Zmeniť No Significant change. Runway 03: Clear and dry, 51-100% contamination with <1mm, friction coefficient 0.70.
Nespracované UWKE 262100Z 03004MPS CAVOK 07/07 Q1007 R03/090070 NOSIG RMK QFE738/0985

VFR

7°C / 7°C

[Viac]
Vietor 30º 8kt
Viditeľnosť >10km
Počasie -
Oblaky Clouds and Visibility OK
Tlak 1007
Zmeniť No Significant change. Runway 03: Clear and dry, 51-100% contamination with <1mm, friction coefficient 0.70.
Nespracované UWKE 262030Z 03004MPS CAVOK 07/07 Q1007 R03/090070 NOSIG RMK QFE738/0985

VFR

7°C / 7°C

[Viac]
Vietor 30º 8kt
Viditeľnosť >10km
Počasie -
Oblaky Clouds and Visibility OK
Tlak 1007
Zmeniť No Significant change. Runway 03: Clear and dry, 51-100% contamination with <1mm, friction coefficient 0.70.
Nespracované UWKE 262000Z 03004MPS CAVOK 07/07 Q1007 R03/090070 NOSIG RMK QFE738/0985

VFR

8°C / 7°C

[Viac]
Vietor 50º 6kt
Viditeľnosť >10km
Počasie -
Oblaky Clouds and Visibility OK
Tlak 1007
Zmeniť No Significant change. Runway 03: Clear and dry, 51-100% contamination with <1mm, friction coefficient 0.70.
Nespracované UWKE 261930Z 05003MPS CAVOK 08/07 Q1007 R03/090070 NOSIG RMK QFE738/0985

VFR

8°C / 7°C

[Viac]
Vietor 30º 6kt
Viditeľnosť >10km
Počasie -
Oblaky Clouds and Visibility OK
Tlak 1007
Zmeniť No Significant change. Runway 03: Clear and dry, 51-100% contamination with <1mm, friction coefficient 0.70.
Nespracované UWKE 261900Z 03003MPS CAVOK 08/07 Q1007 R03/090070 NOSIG RMK QFE739/0985

VFR

8°C / 7°C

[Viac]
Vietor 40º 6kt
Viditeľnosť >10km
Počasie -
Oblaky Clouds and Visibility OK
Tlak 1007
Zmeniť No Significant change. Runway 03: Clear and dry, 51-100% contamination with <1mm, friction coefficient 0.70.
Nespracované UWKE 261830Z 04003MPS CAVOK 08/07 Q1007 R03/090070 NOSIG RMK QFE739/0985

VFR

8°C / 6°C

[Viac]
Vietor 80º 6kt
Viditeľnosť >10km
Počasie -
Oblaky Clouds and Visibility OK
Tlak 1007
Zmeniť No Significant change. Runway 03: Clear and dry, 51-100% contamination with <1mm, friction coefficient 0.70.
Nespracované UWKE 261800Z 08003MPS CAVOK 08/06 Q1007 R03/090070 NOSIG RMK QFE739/0985

VFR

9°C / 6°C

[Viac]
Vietor 70º 8kt
Viditeľnosť >10km
Počasie -
Oblaky Clouds and Visibility OK
Tlak 1007
Zmeniť No Significant change. Runway 03: Clear and dry, 51-100% contamination with <1mm, friction coefficient 0.70.
Nespracované UWKE 261730Z 07004MPS CAVOK 09/06 Q1007 R03/090070 NOSIG RMK QFE739/0985

VFR

9°C / 6°C

[Viac]
Vietor 70º 6kt
Viditeľnosť >10km
Počasie -
Oblaky Clouds and Visibility OK
Tlak 1007
Zmeniť No Significant change. Runway 03: Clear and dry, 51-100% contamination with <1mm, friction coefficient 0.70.
Nespracované UWKE 261700Z 07003MPS CAVOK 09/06 Q1007 R03/090070 NOSIG RMK QFE739/0985

VFR

9°C / 7°C

[Viac]
Vietor 70º 6kt
Viditeľnosť >10km
Počasie -
Oblaky Clouds and Visibility OK
Tlak 1007
Zmeniť No Significant change. Runway 03: Clear and dry, 51-100% contamination with <1mm, friction coefficient 0.70.
Nespracované UWKE 261630Z 07003MPS CAVOK 09/07 Q1007 R03/090070 NOSIG RMK QFE739/0985

VFR

9°C / 7°C

[Viac]
Vietor 60º 6kt
Viditeľnosť >10km
Počasie -
Oblaky Clouds and Visibility OK
Tlak 1007
Zmeniť No Significant change. Runway 03: Clear and dry, 51-100% contamination with <1mm, friction coefficient 0.70.
Nespracované UWKE 261600Z 06003MPS CAVOK 09/07 Q1007 R03/090070 NOSIG RMK QFE739/0985

VFR

10°C / 7°C

[Viac]
Vietor 60º 6kt
Viditeľnosť >10km
Počasie -
Oblaky Clouds and Visibility OK
Tlak 1007
Zmeniť No Significant change. Runway 03: Clear and dry, 51-100% contamination with <1mm, friction coefficient 0.70.
Nespracované UWKE 261530Z 06003MPS CAVOK 10/07 Q1007 R03/090070 NOSIG RMK QFE739/0985

VFR

10°C / 6°C

[Viac]
Vietor 60º 8kt
Viditeľnosť >10km
Počasie -
Oblaky Clouds and Visibility OK
Tlak 1007
Zmeniť No Significant change. Runway 03: Clear and dry, 51-100% contamination with <1mm, friction coefficient 0.70.
Nespracované UWKE 261500Z 06004MPS CAVOK 10/06 Q1007 R03/090070 NOSIG RMK QFE739/0985

VFR

11°C / 6°C

[Viac]
Vietor 40º 6kt
Viditeľnosť >10km
Počasie -
Oblaky Clouds and Visibility OK
Tlak 1007
Zmeniť No Significant change. Runway 03: Clear and dry, 51-100% contamination with <1mm, friction coefficient 0.70.
Nespracované UWKE 261430Z 04003MPS CAVOK 11/06 Q1007 R03/090070 NOSIG RMK QFE739/0985

VFR

12°C / 7°C

[Viac]
Vietor 50º 6kt
Viditeľnosť >10km
Počasie -
Oblaky Clouds and Visibility OK
Tlak 1007
Zmeniť No Significant change. Runway 03: Clear and dry, 51-100% contamination with <1mm, friction coefficient 0.70.
Nespracované UWKE 261400Z 05003MPS CAVOK 12/07 Q1007 R03/090070 NOSIG RMK QFE739/0985

Správy TAF pre lokalitu Begishevo Airport (UWKE)

From till


From till Wind 50º 6kt. Gust 17kt. Visibility 6000m. Scattered Clouds 1600ft.
Temporarly from till Wind 90º 12kt. Gust 25kt. Visibility 498.895m. Light Showers Rain Fog . Broken Clouds 300ft. Scattered Clouds 2000ft.
Temporarly from till Wind 70º 16kt. Gust 27kt. Light Showers Rain . Broken Clouds 2000ft.

Nespracované: TAF UWKE 262245Z 2700/2724 05003G09MPS 6000 SCT016 TEMPO 2700/2703 09006G13MPS 0500 -SHRA FG BKN003 SCT020CB TEMPO 2703/2718 07008G14MPS -SHRA BKN020CB

Aktuálne satelitné snímky a snímky zrážok pre lokalitu Begishevo Airport, Rusko

Značka polohy je umiestnená naBegishevo Airport. [Viac]

Satelitné snímky zhotovované v reálnom čase využívajú viditeľné svetlo počas dňa a infračervené žiarenie počas noci. Vzhľadom na to, že infračervené žiarenie zisťuje teplotné rozdiely, snímka v noci nie je tmavá. Nízke oblaky a hmlu je, žiaľ, ťažké odlíšiť od prízemných teplôt, preto môžu byť počas noci takmer neviditeľné. Meteosat satelitné snímky pre Európu sú aktualizované v reálnom čase každých 5 minút. Snímky z GOES-16/GOES-17 (Severná a Južná Amerika) a Himawari (Ázia) sú aktualizované každých 10 minút.

Copyright 2021 EUMETSAT / meteoblue. / Copyright 2021 meteoblue

Radar a krátkodobá predpoveď zrážok pre Begishevo Airport

Mrholenie
Slabý
Mierne
Ťažké
Veľmi ťažké
Krúpy

Značka polohy je umiestnená na Begishevo Airport. Táto animácia ukazuje zrážky pozorované radarom za poslednú hodinu a tiež 1h predpoveď. Mrholenie alebo slabé sneženie môže byť pre radar neviditeľné. Intenzita zrážok je farebne označená od svetlomodrej po oranžovú.